Hourly Weather Barra Patuca

Today, 18 April, Sunday

Time Temperature Precipitation Wind Pressure Humidity
00:00 +26°C° 0 mm 4 mps 758 mmHg 93%
01:00 +26°C° 0 mm 4 mps 757 mmHg 94%
02:00 +26°C° 0 mm 4 mps 757 mmHg 95%
03:00 +26°C° 0 mm 4 mps 757 mmHg 97%
04:00 +26°C° 0 mm 4 mps 757 mmHg 96%
05:00 +26°C° 0 mm 4 mps 757 mmHg 95%
06:00 +26°C° 0 mm 4 mps 758 mmHg 94%
07:00 +28°C° 0 mm 4 mps 758 mmHg 84%
08:00 +30°C° 0 mm 4 mps 758 mmHg 74%
09:00 +33°C° 0 mm 5 mps 759 mmHg 64%
10:00 +34°C° 0 mm 5 mps 758 mmHg 61%
11:00 +35°C° 0 mm 5 mps 758 mmHg 58%
12:00 +36°C° 0 mm 5 mps 757 mmHg 54%
13:00 +35°C° 0 mm 6 mps 757 mmHg 58%
14:00 +34°C° 0 mm 6 mps 756 mmHg 61%
15:00 +33°C° 0 mm 7 mps 756 mmHg 64%
16:00 +32°C° 0 mm 7 mps 756 mmHg 69%
17:00 +30°C° 0 mm 7 mps 756 mmHg 74%
18:00 +29°C° 0 mm 7 mps 756 mmHg 78%
19:00 +29°C° 0 mm 6 mps 757 mmHg 80%
20:00 +29°C° 0 mm 6 mps 758 mmHg 81%
21:00 +28°C° 0 mm 5 mps 758 mmHg 83%
22:00 +28°C° 0.1 mm 5 mps 758 mmHg 85%
23:00 +27°C° 0.1 mm 4 mps 758 mmHg 88%

Tomorrow, 19 April, Monday

Time Temperature Precipitation Wind Pressure Humidity
00:00 +27°C° 0.1 mm 4 mps 758 mmHg 90%
01:00 +27°C° 0.1 mm 4 mps 758 mmHg 92%
02:00 +26°C° 0.1 mm 3 mps 758 mmHg 94%
03:00 +26°C° 0.1 mm 3 mps 757 mmHg 95%
04:00 +26°C° 0 mm 3 mps 758 mmHg 95%
05:00 +26°C° 0 mm 3 mps 758 mmHg 94%
06:00 +26°C° 0 mm 3 mps 758 mmHg 93%
07:00 +28°C° 0 mm 3 mps 759 mmHg 83%
08:00 +30°C° 0 mm 4 mps 759 mmHg 73%
09:00 +33°C° 0 mm 4 mps 759 mmHg 63%
10:00 +34°C° 0 mm 4 mps 759 mmHg 61%
11:00 +34°C° 0 mm 5 mps 758 mmHg 59%
12:00 +35°C° 0 mm 5 mps 758 mmHg 56%
13:00 +34°C° 0.2 mm 5 mps 757 mmHg 61%
14:00 +33°C° 0.2 mm 5 mps 757 mmHg 66%
15:00 +32°C° 0.2 mm 6 mps 756 mmHg 71%
16:00 +30°C° 0.3 mm 6 mps 757 mmHg 74%
17:00 +29°C° 0.3 mm 6 mps 757 mmHg 78%
18:00 +29°C° 0.3 mm 6 mps 757 mmHg 82%
19:00 +28°C° 0.5 mm 6 mps 758 mmHg 84%
20:00 +28°C° 0.5 mm 5 mps 758 mmHg 86%
21:00 +27°C° 0.5 mm 5 mps 759 mmHg 89%
22:00 +27°C° 0.2 mm 5 mps 758 mmHg 90%
23:00 +26°C° 0.2 mm 4 mps 758 mmHg 92%

Day after tomorrow, 20 April, Tuesday

Time Temperature Precipitation Wind Pressure Humidity
00:00 +26°C° 0.2 mm 4 mps 758 mmHg 94%
01:00 +26°C° 0.3 mm 4 mps 758 mmHg 95%
02:00 +26°C° 0.3 mm 3 mps 758 mmHg 96%
03:00 +25°C° 0.3 mm 3 mps 758 mmHg 96%
04:00 +26°C° 0.3 mm 3 mps 758 mmHg 96%
05:00 +26°C° 0.3 mm 3 mps 758 mmHg 95%
06:00 +26°C° 0.3 mm 3 mps 759 mmHg 95%
07:00 +27°C° 0.4 mm 3 mps 759 mmHg 88%
08:00 +29°C° 0.4 mm 4 mps 760 mmHg 81%
09:00 +30°C° 0.4 mm 4 mps 760 mmHg 73%
10:00 +32°C° 0.2 mm 4 mps 759 mmHg 70%
11:00 +33°C° 0.2 mm 5 mps 759 mmHg 66%
12:00 +33°C° 0.2 mm 5 mps 759 mmHg 63%
13:00 +33°C° 0.4 mm 5 mps 758 mmHg 65%
14:00 +33°C° 0.4 mm 6 mps 758 mmHg 68%
15:00 +32°C° 0.4 mm 6 mps 757 mmHg 71%
16:00 +30°C° 0.1 mm 6 mps 757 mmHg 74%
17:00 +29°C° 0.1 mm 6 mps 758 mmHg 77%
18:00 +29°C° 0.1 mm 6 mps 758 mmHg 80%
19:00 +28°C° 0 mm 6 mps 758 mmHg 81%
20:00 +28°C° 0 mm 6 mps 759 mmHg 81%
21:00 +28°C° 0 mm 5 mps 759 mmHg 82%
22:00 +27°C° 0 mm 5 mps 759 mmHg 84%
23:00 +27°C° 0 mm 4 mps 759 mmHg 87%

21 April, Wednesday

Time Temperature Precipitation Wind Pressure Humidity
00:00 +26°C° 0 mm 4 mps 759 mmHg 90%
01:00 +26°C° 0 mm 3 mps 759 mmHg 90%
02:00 +26°C° 0 mm 3 mps 759 mmHg 91%
03:00 +25°C° 0 mm 3 mps 758 mmHg 92%
04:00 +25°C° 0 mm 3 mps 759 mmHg 92%
05:00 +25°C° 0 mm 3 mps 759 mmHg 92%
06:00 +25°C° 0 mm 3 mps 760 mmHg 91%
07:00 +27°C° 0.1 mm 3 mps 760 mmHg 82%
08:00 +29°C° 0.1 mm 4 mps 760 mmHg 73%
09:00 +32°C° 0.1 mm 5 mps 761 mmHg 63%
10:00 +33°C° 0 mm 5 mps 760 mmHg 59%
11:00 +34°C° 0 mm 6 mps 760 mmHg 56%
12:00 +35°C° 0 mm 6 mps 759 mmHg 52%
13:00 +34°C° 0 mm 6 mps 759 mmHg 54%
14:00 +34°C° 0 mm 6 mps 759 mmHg 56%
15:00 +33°C° 0 mm 6 mps 758 mmHg 58%
16:00 +32°C° 0 mm 6 mps 759 mmHg 63%
17:00 +29°C° 0 mm 6 mps 759 mmHg 68%
18:00 +28°C° 0 mm 6 mps 759 mmHg 73%
19:00 +28°C° 0 mm 6 mps 759 mmHg 73%
20:00 +28°C° 0 mm 5 mps 760 mmHg 73%
21:00 +27°C° 0 mm 5 mps 760 mmHg 73%
22:00 +27°C° 0 mm 4 mps 760 mmHg 76%
23:00 +26°C° 0 mm 4 mps 760 mmHg 80%

22 April, Thursday

Time Temperature Precipitation Wind Pressure Humidity
00:00 +25°C° 0 mm 3 mps 760 mmHg 83%
01:00 +25°C° 0 mm 3 mps 760 mmHg 85%
02:00 +24°C° 0 mm 3 mps 760 mmHg 86%
03:00 +24°C° 0 mm 3 mps 759 mmHg 88%
04:00 +24°C° 0 mm 3 mps 760 mmHg 87%
05:00 +24°C° 0 mm 3 mps 760 mmHg 86%
06:00 +24°C° 0 mm 3 mps 760 mmHg 86%
07:00 +27°C° 0 mm 3 mps 760 mmHg 75%
08:00 +29°C° 0 mm 4 mps 761 mmHg 65%
09:00 +32°C° 0 mm 4 mps 761 mmHg 54%
10:00 +33°C° 0 mm 4 mps 761 mmHg 52%
11:00 +33°C° 0 mm 5 mps 760 mmHg 51%
12:00 +34°C° 0 mm 5 mps 760 mmHg 49%
13:00 +33°C° 0 mm 5 mps 759 mmHg 52%
14:00 +33°C° 0 mm 5 mps 759 mmHg 54%
15:00 +32°C° 0 mm 5 mps 758 mmHg 57%
16:00 +30°C° 0 mm 5 mps 759 mmHg 62%
17:00 +29°C° 0 mm 5 mps 759 mmHg 67%
18:00 +28°C° 0 mm 5 mps 759 mmHg 73%
19:00 +27°C° 0 mm 5 mps 760 mmHg 74%
20:00 +27°C° 0 mm 4 mps 760 mmHg 76%
21:00 +26°C° 0 mm 4 mps 761 mmHg 78%
22:00 +26°C° 0 mm 4 mps 760 mmHg 81%
23:00 +26°C° 0 mm 3 mps 760 mmHg 83%

23 April, Friday

Time Temperature Precipitation Wind Pressure Humidity
00:00 +25°C° 0 mm 3 mps 760 mmHg 86%
01:00 +25°C° 0.1 mm 3 mps 760 mmHg 87%
02:00 +25°C° 0.1 mm 3 mps 759 mmHg 88%
03:00 +25°C° 0.1 mm 2 mps 759 mmHg 89%
04:00 +25°C° 0.1 mm 3 mps 760 mmHg 87%
05:00 +25°C° 0.1 mm 3 mps 760 mmHg 86%
06:00 +26°C° 0.1 mm 3 mps 760 mmHg 84%
07:00 +27°C° 0 mm 3 mps 761 mmHg 76%
08:00 +29°C° 0 mm 3 mps 761 mmHg 68%
09:00 +32°C° 0 mm 4 mps 761 mmHg 60%
10:00 +32°C° 0 mm 4 mps 761 mmHg 58%
11:00 +33°C° 0 mm 5 mps 760 mmHg 55%
12:00 +33°C° 0 mm 5 mps 760 mmHg 52%
13:00 +33°C° 0 mm 5 mps 759 mmHg 53%
14:00 +33°C° 0 mm 5 mps 759 mmHg 53%
15:00 +33°C° 0 mm 5 mps 758 mmHg 54%
16:00 +30°C° 0 mm 5 mps 759 mmHg 61%
17:00 +29°C° 0 mm 4 mps 759 mmHg 68%
18:00 +28°C° 0 mm 4 mps 759 mmHg 76%
19:00 +28°C° 0 mm 4 mps 759 mmHg 78%
20:00 +27°C° 0 mm 4 mps 760 mmHg 79%
21:00 +27°C° 0 mm 4 mps 760 mmHg 81%
22:00 +26°C° 0.1 mm 3 mps 760 mmHg 84%
23:00 +26°C° 0.1 mm 3 mps 760 mmHg 86%
Show more